Regional Weather Roundup
Issued by NWS

Home | Current Version | Previous Version | Graphics & Text | Print | Product List | Glossary On
Versions: 1 2 3 4 5 6 7 8 9 10 11 12 13 14 15 16 17 18 19 20 21 22 23 24 25 26 27 28 29 30 31 32 33 34 35 36 37 38 39 40 41 42 43 44 45 46 47 48 49 50
000
ASUS43 KIND 241309
RWRIN

WEATHER ROUNDUP FOR INDIANA
NATIONAL WEATHER SERVICE INDIANAPOLIS IN
900 AM EDT SUN MAY 24 2015

NOTE: "FAIR" INDICATES FEW OR NO CLOUDS BELOW 12,000 FEET WITH NO
SIGNIFICANT WEATHER AND/OR OBSTRUCTIONS TO VISIBILITY.

* - STATION DOES NOT REPORT WEATHER SUCH AS PRECIPITATION OR FOG.

+ - STATION NOT QUALITY CONTROLLED BY THE NATIONAL WEATHER SERVICE.
    USE DATA WITH CAUTION...ESPECIALLY DEWPOINT AND RELATIVE
    HUMIDITY OBSERVATIONS.

INZ001>003-010>013-019-020-241400-
NORTHWEST INDIANA

CITY           SKY/WX    TMP DP  RH WIND       PRES   REMARKS
GARY /AIRPORT/ CLOUDY    66  50  55 SE5       30.20S
KNOX *+        PTSUNNY   66  46  48 SE9       30.20F
LA PORTE +     PTSUNNY   67  51  55 S8        30.22S
MICHIGAN CITY+ CLOUDY    64  46  52 CALM      30.21S
MONTICELLO +   CLOUDY    63  52  66 CALM      30.21S
RENSSELAER +   LGT RAIN  63  54  72 SE5       30.21R
VALPARAISO     PTSUNNY   66  50  56 S6        30.21S

$$

LMZ046-743>745-241400-
SOUTHERN LAKE MICHIGAN

STATION/POSITION TIME  TEMP    WIND        PRES    WAVE
                       AIR SEA DIR/SP/G            HT
                 (UTC) (F)     (DEG/KT/KT) (MB)    (FT)
BURNS HARBOR     1300   66     160/  6/ 11 1022.7S
MICHIGAN CITY    1300   65     130/ 10/ 13   N/A
5NW MICH CITY    1300   60 54  160/  8/  8   N/A     1

$$

INZ004-005-014>016-021>024-241400-
NORTH CENTRAL INDIANA

CITY           SKY/WX    TMP DP  RH WIND       PRES   REMARKS
ELKHART        PTSUNNY   64  50  59 SE6       30.23F
GOSHEN         PTSUNNY   67  53  61 SE7       30.23F
LOGANSPORT +   CLOUDY    64  48  55 SE6       30.23S
PERU/GRISSOM   CLOUDY    64  53  67 SE7       30.22S
ROCHESTER +    PTSUNNY   66  52  59 SE5       30.23F
SOUTH BEND     CLOUDY    66  48  52 S8        30.22F
WARSAW +       PTSUNNY   66  50  55 S3        30.24F

$$

INZ006>009-017-018-025>027-241400-
NORTHEAST INDIANA

CITY           SKY/WX    TMP DP  RH WIND       PRES   REMARKS
ANGOLA *+      SUNNY     63  55  77 CALM      30.26S
AUBURN +       PTSUNNY   63  50  63 CALM      30.26F
FORT WAYNE     PTSUNNY   67  51  56 SE9       30.26F
HUNTINGTON +   PTSUNNY   65  50  57 S6        30.25S

$$

INZ028-029-035-036-043>045-051>053-241400-
WEST CENTRAL INDIANA

CITY           SKY/WX    TMP DP  RH WIND       PRES   REMARKS
CRAWFORDSVL +  CLOUDY    66  46  47 S10       30.22R
GREENCASTLE +  PTSUNNY   68  50  52 S9        30.23S
LAFAYETTE      CLOUDY    63  53  70 E3        30.20F
TERRE HAUTE    PTSUNNY   67  54  63 SE9       30.21R

$$

INZ030>032-037>040-046>048-054>057-064-065-241400-
CENTRAL INDIANA

CITY           SKY/WX    TMP DP  RH WIND       PRES   REMARKS
CP ATTERBURY + CLOUDY    63  54  72 S3        30.26R
COLUMBUS       PTSUNNY   63  54  72 S6        30.26R
FRANKFORT +    CLOUDY    66  53  63 SE7       30.24S
GREENWOOD *+   CLOUDY    64  50  59 SE9       30.25S
INDIANAPOLIS   PTSUNNY   66  51  58 SE9       30.22S
-EAGLE CREEK   CLOUDY    65  52  62 SE6       30.23S
KOKOMO *+      CLOUDY    64  52  63 S10       30.23S
MARION +       CLOUDY    65  49  57 S9        30.25S
MT COMFORT *+  CLOUDY    64  45  48 S8        30.25S
SHELBYVILLE    CLOUDY    68  53  58 S9        30.25S
ZIONSVILLE +   DRIZZLE   65  51  61 SE6       30.25R

$$

INZ033-034-041-042-049-050-058-059-241400-
EAST CENTRAL INDIANA

CITY           SKY/WX    TMP DP  RH WIND       PRES   REMARKS
MUNCIE         CLOUDY    68  50  52 S9        30.25S

$$

INZ060-061-067>069-081>083-085>088-241400-
SOUTHWEST INDIANA

CITY           SKY/WX    TMP DP  RH WIND       PRES   REMARKS
EVANSVILLE     PTSUNNY   68  55  63 S8        30.22R
HUNTINGBURG *+ PTSUNNY   70  54  56 S12       30.24R
WASHINGTON +   MOSUNNY   68  50  52 S14       30.21S

$$

INZ062-063-066-070>080-084-089>092-241400-
SOUTH CENTRAL AND SOUTHEAST INDIANA

CITY           SKY/WX    TMP DP  RH WIND       PRES   REMARKS
BLOOMINGTON    PTSUNNY   66  54  65 SE8       30.24R
MADISON *+     PTSUNNY   64  50  59 SE5       30.30R
NORTH VERNON + CLOUDY    66  52  59 S6        30.27F
SEYMOUR +      PTSUNNY   66  54  63 SE6       30.25F

$$




USA.gov is the U.S. government's official web portal to all federal, state and local government web resources and services.